SCP
0 0 0 0 0 0 0 0 0 0 0 0 0 0 0 0 0 0 0 0 0 0 0 0 0 0 0 0 0 0 0 0 0 0 0 0 0 0 0 0 0 0 0 0
0 0 0 0 0 0 0 0 0 0 0 0 0 0 0 0 0 0 0 0 0 0 0 0 0 0 0 0 0 0 0 0 0 0 0 0 0 0 0 0 0 0 0 0
0 0 0 0 0 0 0 0 0 0 0 0 0 0 0 0 0 0 0 0 0 0 0 0 0 0 0 0 0 0 0 0 0 0 0 0 0 0 0 0 0 0 0 0
0 0 0 0 0 0 0 0 0 0 0 0 0 0 0 0 0 0 0 0 0 0 0 0 0 0 0 0 0 0 0 0 0 0 0 0 0 0 0 0 0 0 0 0
0 0 0 0 0 0 0 0 0 0 0 0 0 0 0 0 0 0 0 0 0 0 0 0 0 0 0 0 0 0 0 0 0 0 0 0 0 0 0 0 0 0 0 0
0 0 0 0 0 0 0 0 0 0 0 0 0 0 0 0 0 0 0 0 0 0 0 0 0 0 0 0 0 0 0 0 0 0 0 0 0 0 0 0 0 0 0 0
0 0 0 0 0 0 0 0 0 0 0 0 0 0 0 0 0 0 0 0 0 0 0 0 0 0 0 0 0 0 0 0 0 0 0 0 0 0 0 0 0 0 0 0
0 0 0 0 0 0 0 0 0 0 0 0 0 0 0 0 0 0 0 0 0 0 0 0 0 0 0 0 0 0 0 0 0 0 0 0 0 0 0 0 0 0 0 -0
0 0 0 0 0 0 0 0 0 0 0 0 0 0 0 0 0 0 0 0 0 0 0 0 0 0 0 0 0 0 0 0 0 0 0 0 0 0 0 0 0 0 -0 -0
0 0 0 0 0 0 0 -0 0 0 0 0 0 0 0 0 0 0 0 0 0 0 0 0 0 0 0 0 0 0 0 0 0 0 0 0 0 0 0 0 0 0 0 0
0 0 0 0 0 0 0 0 0 0 0 0 0 0 0 0 0 0 0 0 0 0 0 0 0 0 0 0 0 0 0 0 0 0 0 0 0 0 0 0 0 0 0 0
0 0 0 0 0 0 0 0 0 0 0 0 0 0 0 0 0 0 0 0 0 0 0 0 0 0 0 0 0 0 0 0 0 0 0 0 0 0 0 0 0 0 0 0
0 0 0 0 0 0 0 0 0 0 0 0 0 0 0 0 0 0 0 0 0 0 0 0 0 0 0 0 0 0 0 0 0 0 0 0 0 0 0 0 0 0 0 0
0 0 0 0 0 0 0 0 0 0 0 0 0 0 0 0 0 0 0 0 0 0 0 0 0 0 0 0 0 0 0 0 0 0 0 0 0 0 0 0 0 0 0 0
0 0 -0 -0 0 0 0 0 0 0 0 0 0 0 0 0 0 0 0 0 0 0 0 0 0 0 0 0 0 0 0 0 0 0 0 0 0 0 0 0 0 0 0 0
0 -0 -0 -0 -0 -0 0 0 0 0 0 0 0 0 0 0 0 0 0 0 0 0 0 0 0 0 0 0 0 0 0 0 0 0 0 0 0 0 0 0 0 0 0 0
0 -0 -0 -0 -0 -0 -0 0 0 0 0 0 0 0 0 0 0 0 0 0 0 0 0 0 0 0 0 0 0 0 0 0 0 0 0 0 0 0 0 0 0 0 0 0
0 0 0 -0 -0 -0 -0 0 0 0 0 0 0 0 0 0 0 0 0 0 0 0 0 0 0 0 0 0 0 0 0 -0 0 0 0 0 0 0 0 0 0 0 0 0
0 0 0 -0 -0 -0 -0 0 0 0 0 0 0 0 0 0 0 0 0 0 0 0 0 0 0 0 0 0 0 0 0 -0 0 0 0 0 0 0 0 0 0 0 0 0
-0 0 0 0 -0 -0 -0 0 0 0 0 0 0 0 0 0 0 0 0 0 0 0 0 0 0 0 0 0 0 0 0 0 0 0 0 0 0 0 0 0 0 0 0 0
-0 0 0 0 -0 0 0 0 0 0 0 0 0 0 0 0 0 0 0 0 0 0 0 0 0 0 0 0 0 0 0 0 0 0 0 0 0 0 0 0 0 0 0 0
0 0 0 0 0 0 0 0 0 0 0 0 0 0 0 0 0 0 0 0 0 0 0 0 0 0 0 0 0 0 0 0 0 0 0 0 0 0 0 0 0 0 0 0
0 0 0 0 0 0 0 0 0 0 0 0 0 0 0 0 0 0 0 0 0 0 0 0 0 0 0 0 0 0 0 0 0 0 0 0 0 0 0 0 0 0 0 0
0 0 0 0 0 0 0 0 0 0 0 0 0 0 0 0 0 0 0 0 0 0 0 0 0 0 0 0 0 0 0 0 0 0 0 0 0 0 0 0 0 0 0 0
0 0 0 -0 0 0 0 0 0 0 0 0 0 0 0 0 0 0 0 0 0 0 0 0 0 0 0 0 0 0 0 0 0 0 0 0 0 0 0 0 0 0 0 0
0 0 0 0 0 0 0 0 0 0 0 0 0 0 0 0 0 0 0 0 0 0 0 0 0 0 0 0 0 0 0 0 0 0 0 0 0 0 0 0 0 0 0 0
Wind_Speed
4 4 9 11 9 4 5 5 5 5 2 4 7 9 9 5 5 6 7 7 9 10 7 6 7 7 8 8 9 9 8 7 6 4 4 3 2 1 1 1 1 1 1 2
3 9 9 5 5 4 4 4 4 3 1 3 4 9 8 7 7 8 9 10 10 8 5 6 7 8 9 10 10 10 9 8 8 5 4 3 3 2 1 1 1 1 1 1
8 5 6 6 6 7 6 7 6 3 1 2 2 8 6 5 4 5 7 8 8 10 9 8 8 9 9 10 11 11 10 9 8 6 4 4 3 2 1 0 0 1 1 1
6 4 5 7 8 8 8 6 5 4 2 3 2 6 7 4 5 6 7 7 8 7 7 7 8 9 10 11 10 10 10 9 8 8 7 7 5 3 3 2 1 1 1 1
5 4 7 9 8 7 5 4 4 3 3 2 2 4 9 2 5 8 8 8 7 7 7 8 9 10 9 9 9 9 9 8 8 8 8 7 4 3 2 2 2 1 1 1
4 3 4 5 4 5 5 4 3 2 2 5 7 7 9 5 8 6 6 6 6 5 5 6 6 6 6 6 7 7 9 8 8 8 7 7 7 5 4 2 2 1 0 0
2 2 1 2 4 3 6 6 2 1 3 8 4 6 11 7 6 6 6 6 4 4 4 4 5 7 7 8 8 8 9 8 8 8 8 7 7 7 6 4 3 2 1 1
2 3 3 2 4 6 7 8 7 7 7 4 4 9 9 5 3 3 3 3 2 2 3 4 6 7 8 8 9 9 9 8 8 8 7 6 6 4 4 4 3 3 2 2
1 2 2 2 1 6 6 5 4 4 2 2 5 6 8 2 2 2 1 1 1 1 2 3 4 5 6 8 8 9 10 8 8 7 6 5 5 4 4 3 3 2 2 1
1 1 3 3 1 2 4 6 4 5 5 4 4 5 5 3 2 2 2 2 2 1 0 1 2 4 4 5 6 7 8 8 7 7 6 5 5 4 4 3 3 3 2 1
1 1 3 2 1 3 2 3 3 4 4 4 3 6 3 4 2 1 1 1 1 1 1 1 1 2 3 4 5 6 6 5 5 5 5 5 4 4 4 3 3 3 2 2
1 2 1 3 3 2 2 4 5 5 4 3 3 6 2 1 1 0 1 2 2 2 2 2 2 3 3 4 4 5 5 5 5 5 4 4 4 4 3 3 2 2 2 2
1 2 2 4 3 2 1 1 2 2 3 3 4 6 2 2 3 2 2 3 3 3 3 3 3 3 3 3 4 4 4 4 4 4 5 4 4 4 3 3 2 2 2 1
1 1 3 5 5 2 3 4 3 3 4 4 7 6 5 4 3 3 3 2 2 2 2 3 2 2 2 3 3 3 3 4 4 4 5 4 4 4 3 3 2 2 2 1
2 1 2 4 5 3 4 5 5 5 5 6 7 7 6 3 2 2 1 2 3 3 3 2 1 1 2 3 3 3 3 3 4 5 4 3 3 3 3 3 2 2 2 1
3 0 1 3 3 3 3 4 5 5 4 5 4 6 3 2 1 1 1 1 1 1 1 1 1 2 2 2 3 3 3 3 4 5 4 3 4 3 3 3 2 2 2 2
1 0 1 3 4 2 4 4 3 3 3 4 7 6 1 1 1 1 1 1 1 1 1 0 1 1 2 2 3 3 3 4 4 4 4 4 4 3 3 3 3 2 2 2
2 1 1 1 1 3 4 1 2 2 2 2 3 3 2 2 2 1 1 1 1 1 1 1 0 1 1 2 2 3 4 4 4 4 4 3 3 3 2 2 2 2 1 1
3 3 1 1 2 4 3 3 2 1 3 2 2 2 1 1 2 3 2 1 0 1 1 1 1 1 2 3 3 5 4 4 4 3 3 3 3 3 3 2 2 1 1 1
2 2 2 1 2 4 3 6 5 1 3 3 2 1 0 1 0 3 2 3 3 2 2 2 2 3 4 2 4 5 4 4 3 2 2 3 3 3 3 2 1 1 1 1
3 2 1 1 2 4 4 7 3 1 4 6 3 2 1 1 2 1 1 2 3 3 3 3 4 4 3 2 4 5 4 3 2 2 3 3 3 3 2 2 2 2 1 1
1 0 1 1 1 4 5 4 1 3 5 5 4 3 1 1 2 2 3 3 3 4 4 4 4 4 3 3 4 5 3 2 2 4 4 3 3 2 2 3 2 2 2 1
1 2 2 3 3 3 2 3 4 3 4 4 4 3 2 2 2 3 3 3 3 4 4 3 4 5 4 4 3 4 2 2 4 4 4 3 3 3 2 2 2 2 1 1
3 2 1 2 4 4 4 4 5 4 4 4 3 3 2 2 2 3 3 3 3 4 3 3 4 5 4 4 4 3 2 3 5 5 3 3 3 3 2 2 1 1 1 1
3 2 1 3 5 5 4 5 6 5 5 5 5 4 3 3 2 2 2 3 3 3 3 3 4 4 3 3 4 3 3 4 5 4 3 3 3 2 2 2 1 1 0 0
1 1 1 4 3 3 5 6 6 5 5 4 5 5 5 3 2 3 3 3 3 3 3 4 4 4 3 3 4 3 3 3 4 4 3 2 2 2 2 2 2 4 3 4
Wind_Direction
169 184 205 201 199 194 168 181 215 227 211 188 227 248 257 249 229 234 234 226 225 226 222 197 190 181 174 174 174 174 167 162 151 145 145 144 157 155 146 148 140 135 125 120
161 226 219 186 187 189 189 204 227 265 229 204 246 262 259 242 229 223 225 226 225 224 212 196 188 183 182 182 181 178 175 169 168 165 155 143 138 148 160 156 142 147 139 135
202 220 184 181 189 198 217 206 208 217 341 336 309 287 257 255 234 236 232 228 222 214 212 202 193 192 185 185 184 181 179 173 169 152 129 106 89 79 91 154 177 194 171 157
221 227 180 190 203 192 226 207 189 188 177 261 184 274 273 250 255 244 240 232 225 219 212 201 193 191 190 191 183 178 175 170 165 156 155 154 160 171 190 183 192 207 178 163
223 201 189 204 208 184 203 166 170 179 179 254 223 238 276 251 251 248 239 233 229 218 206 202 197 193 189 182 177 175 168 167 164 164 166 163 161 162 150 142 154 169 186 171
245 249 206 205 196 171 151 107 83 73 105 244 215 203 268 226 223 243 241 236 231 218 207 206 198 179 174 170 167 166 163 167 167 166 167 169 165 157 149 156 164 178 213 235
264 275 246 159 137 164 151 134 136 181 212 240 196 207 248 242 228 230 244 246 243 220 204 195 183 175 172 170 169 167 166 169 169 169 172 174 170 167 171 176 179 181 198 236
178 238 225 191 173 177 186 167 172 186 205 241 186 227 251 258 263 256 254 244 247 228 204 197 189 179 175 174 171 168 170 170 171 173 177 174 168 169 177 180 180 192 206 218
183 258 310 285 248 155 162 194 175 140 138 210 239 269 295 274 324 337 344 14 302 256 222 193 176 169 169 171 174 174 171 167 171 174 170 168 168 171 176 176 175 186 201 208
142 270 302 297 69 17 167 154 140 158 170 221 254 251 245 255 270 326 355 342 322 348 40 133 154 163 165 168 167 165 166 168 168 168 169 170 174 176 172 167 179 189 197 191
24 141 322 359 177 193 130 158 166 164 182 175 220 257 239 223 231 240 299 328 348 23 71 112 122 139 140 139 147 155 156 152 155 161 162 159 165 164 163 172 186 187 187 178
3 104 292 281 289 286 203 189 169 175 208 188 191 263 315 229 278 118 20 17 27 41 47 69 97 103 116 134 143 149 152 154 159 156 150 151 150 150 156 168 173 168 171 177
8 84 22 344 344 359 37 206 191 146 140 182 200 259 340 37 31 28 45 34 36 41 46 51 71 95 118 131 135 139 146 148 143 141 141 139 143 148 155 158 152 148 152 151
4 133 185 217 245 243 272 268 240 176 186 212 230 251 301 334 352 353 10 23 36 43 52 55 66 88 115 124 128 131 131 133 134 136 138 144 154 156 152 144 134 134 137 132
56 179 240 267 266 254 263 258 231 222 210 209 233 238 256 272 270 290 336 28 43 36 34 45 72 100 109 112 115 121 123 126 131 132 135 145 141 133 126 121 122 118 109 102
38 10 293 290 280 278 290 283 248 242 243 239 246 262 263 297 346 7 9 65 38 1 5 32 62 100 115 127 131 127 128 132 130 131 134 132 125 121 120 121 115 99 86 79
340 102 346 283 298 329 282 264 224 222 232 205 232 249 214 276 258 248 246 220 199 279 345 43 105 138 145 150 148 146 143 130 126 127 127 126 126 122 124 122 107 98 91 85
178 155 178 278 355 237 253 310 244 232 264 255 257 261 221 228 265 315 291 191 223 330 338 345 68 103 101 105 107 113 112 118 122 123 122 123 121 118 114 112 112 104 101 98
179 160 149 160 245 276 308 351 353 263 281 324 290 292 327 71 22 341 355 36 299 285 300 329 30 101 100 100 110 110 106 109 112 120 127 133 134 131 123 117 112 102 108 77
51 108 130 157 208 242 296 321 310 237 285 337 332 277 304 69 194 273 330 7 24 29 29 36 44 70 84 88 107 107 109 111 121 135 138 138 140 139 139 138 114 96 123 123
4 17 131 202 236 269 321 321 344 146 277 323 315 271 224 234 235 267 14 31 51 46 39 51 64 68 66 88 106 106 108 121 139 122 111 109 114 123 128 111 102 101 90 72
186 31 232 168 226 270 340 8 35 280 311 322 323 322 351 39 54 56 53 62 64 53 45 54 70 65 50 68 102 103 102 103 100 102 100 94 89 90 92 96 86 86 88 70
221 212 212 205 226 283 323 316 310 318 318 324 332 348 61 63 41 37 47 54 59 63 57 56 77 73 54 50 84 103 92 90 98 95 92 88 79 74 82 99 90 72 68 64
309 330 244 278 285 298 316 324 337 341 333 337 353 13 41 65 57 43 41 46 53 55 57 61 78 76 57 45 54 72 82 93 97 94 88 85 84 71 62 67 82 90 77 36
293 314 298 279 294 317 333 342 339 349 5 19 22 22 32 69 58 51 44 43 51 51 51 67 79 79 64 53 54 50 66 93 93 90 85 78 76 80 68 50 50 39 336 257
300 240 231 257 283 287 298 322 335 353 7 17 25 20 16 29 51 57 53 47 53 55 55 66 70 73 65 62 59 49 58 90 100 93 82 78 76 72 70 58 33 27 25 11